Location: ??????
(41.3794°N, 22.5014°E)
Time: 21:06:53
(UTC+00:00)

Cosmos 1606 - Pass Details

Date: 30 November 2020
Orbit: 502 x 527 km, 82.5° (Epoch: 18 January)

Event Time Altitude Azimuth Distance (km) Brightness Sun altitude
Rises 15:26:43 0° 185° (S) 2,651 6.8 -5.1°
Reaches altitude 10° 15:28:51 10° 185° (S) 1,766 5.8 -5.4°
Maximum altitude 15:32:44 87° 99° (E) 534 2.7 -6.1°
Drops below altitude 10° 15:36:39 10° 9° (N) 1,776 5.1 -6.8°
Sets 15:38:47 0° 9° (N) 2,667 6.0 -7.1°
